N1ULC Weather Reports


time (UTC)temp
F
wind
direction
speed
knots
gust
knots
rain 1hr
in
rain 24hr
in
rain mn
in
humidity
%
barometer
mb
20260504035321 61 196 11.3 14.8 0.00 0.00 0.00 31 997.0
20260504034834 61 235 10.4 13.0 0.00 0.00 0.00 31 997.3
20260504034328 60 202 8.7 12.2 0.00 0.00 0.00 33 997.3
20260504033828 60 209 7.0 13.0 0.00 0.00 0.00 34 997.3
20260504033322 60 203 8.7 13.0 0.00 0.00 0.00 34 997.4
20260504032835 60 213 8.7 13.0 0.00 0.00 0.00 34 997.4
20260504032330 60 210 8.7 13.0 0.00 0.00 0.00 34 997.4
20260504031824 60 207 7.8 10.4 0.00 0.00 0.00 33 997.6
20260504031320 60 210 6.1 9.6 0.00 0.00 0.00 33 997.6
20260504030857 60 194 7.0 9.6 0.00 0.00 0.00 33 997.6
20260504030327 60 206 6.1 9.6 0.00 0.00 0.00 32 997.9
20260504025821 61 207 7.0 9.6 0.00 0.00 0.00 32 997.9
20260504025317 61 215 7.0 8.7 0.00 0.00 0.00 32 997.9
20260504024825 61 229 5.2 9.6 0.00 0.00 0.00 32 998.0
20260504024341 62 217 7.0 9.6 0.00 0.00 0.00 32 998.0
20260504023833 62 216 4.3 8.7 0.00 0.00 0.00 32 998.0
20260504023329 62 196 5.2 10.4 0.00 0.00 0.00 31 998.0
20260504022822 64 217 7.0 10.4 0.00 0.00 0.00 29 998.0
20260504022317 64 214 5.2 12.2 0.00 0.00 0.00 29 998.0
20260504021832 65 231 8.7 12.2 0.00 0.00 0.00 28 998.4
20260504021325 65 214 8.7 12.2 0.00 0.00 0.00 28 998.4
20260504020818 65 251 8.7 12.2 0.00 0.00 0.00 29 998.4
20260504020333 66 252 8.7 13.9 0.00 0.00 0.00 29 998.4
20260504015849 66 222 9.6 13.9 0.00 0.00 0.00 29 998.4
20260504015324 66 238 7.0 12.2 0.00 0.00 0.00 29 998.4
20260504014820 67 235 8.7 13.9 0.00 0.00 0.00 30 998.4
20260504014353 67 213 9.6 13.9 0.00 0.00 0.00 32 998.4
20260504013846 67 236 5.2 10.4 0.00 0.00 0.00 34 998.4
20260504013318 67 228 7.0 10.4 0.00 0.00 0.00 34 998.4
20260504012833 68 217 0.0 0.0 0.00 0.00 0.00 33 998.4
20260504012328 68 214 0.0 0.0 0.00 0.00 0.00 32 998.4
20260504011821 69 222 0.0 0.0 0.00 0.00 0.00 32 998.5
20260504011316 69 204 0.0 0.0 0.00 0.00 0.00 31 998.5
20260504010834 70 204 0.0 0.0 0.00 0.00 0.00 30 998.5
20260504010349 70 209 0.0 0.0 0.00 0.00 0.00 30 998.8
20260504005844 71 205 0.0 0.0 0.00 0.00 0.00 29 998.8
20260504005317 71 218 0.0 0.0 0.00 0.00 0.00 30 998.8
20260504004829 71 220 0.0 0.0 0.00 0.00 0.00 29 999.1
20260504004324 71 252 0.0 0.0 0.00 0.00 0.00 29 999.1
20260504003820 71 229 0.0 0.0 0.00 0.00 0.00 29 999.1
20260504003318 70 209 0.0 0.0 0.00 0.00 0.00 29 999.6
20260504002836 71 215 0.0 0.0 0.00 0.00 0.00 29 999.6
20260504002331 70 217 0.0 0.0 0.00 0.00 0.00 29 999.6
20260504001826 71 212 0.0 0.0 0.00 0.00 0.00 28 999.7
20260504001321 71 214 0.0 0.0 0.00 0.00 0.00 27 999.7
20260504000844 71 215 0.0 0.0 0.00 0.00 0.00 26 999.7
20260504000334 72 224 0.0 0.0 0.00 0.00 0.00 26 999.8
20260503235829 73 221 0.0 0.0 0.00 0.00 0.00 25 999.8
20260503235324 73 215 0.0 0.0 0.00 0.00 0.00 25 999.8
20260503234838 73 226 0.0 0.0 0.00 0.00 0.00 24 1000.2
20260503234331 73 245 0.0 0.0 0.00 0.00 0.00 24 1000.2
20260503233846 73 237 0.0 0.0 0.00 0.00 0.00 24 1000.2
20260503233320 73 192 0.0 0.0 0.00 0.00 0.00 25 1000.4
20260503232838 73 210 0.0 0.0 0.00 0.00 0.00 25 1000.4
20260503232353 72 234 0.0 0.0 0.00 0.00 0.00 25 1000.4
20260503231826 72 227 0.0 0.0 0.00 0.00 0.00 25 1000.4
20260503231321 72 216 0.0 0.0 0.00 0.00 0.00 23 1000.4
20260503230836 73 218 0.0 0.0 0.00 0.00 0.00 24 1000.4
20260503230352 73 244 0.0 0.0 0.00 0.00 0.00 24 1000.9
20260503225823 72 253 0.0 0.0 0.00 0.00 0.00 24 1000.9
20260503225359 72 238 0.0 0.0 0.00 0.00 0.00 23 1000.9
20260503224827 72 232 0.0 0.0 0.00 0.00 0.00 24 1000.9
20260503224321 72 238 0.0 0.0 0.00 0.00 0.00 24 1000.9
20260503223836 73 244 0.0 0.0 0.00 0.00 0.00 24 1000.9
20260503223331 73 236 0.0 0.0 0.00 0.00 0.00 24 1001.3
20260503222827 73 241 0.0 0.0 0.00 0.00 0.00 24 1001.3
20260503222323 72 230 0.0 0.0 0.00 0.00 0.00 24 1001.3
20260503221840 74 219 0.0 0.0 0.00 0.00 0.00 23 1001.5
20260503221353 73 259 0.0 0.0 0.00 0.00 0.00 22 1001.5
20260503220827 74 247 0.0 0.0 0.00 0.00 0.00 22 1001.5
20260503220322 74 232 0.0 0.0 0.00 0.00 0.00 23 1002.0
20260503215837 73 236 0.0 0.0 0.00 0.00 0.00 22 1002.0
20260503215334 74 212 0.0 0.0 0.00 0.00 0.00 23 1002.0
20260503214850 73 227 0.0 0.0 0.00 0.00 0.00 23 1002.1
20260503214326 72 214 0.0 0.0 0.00 0.00 0.00 22 1002.1
20260503213821 73 228 0.0 0.0 0.00 0.00 0.00 21 1002.1
20260503213335 72 214 0.0 0.0 0.00 0.00 0.00 23 1002.4
20260503212829 73 227 0.0 0.0 0.00 0.00 0.00 24 1002.4
20260503212324 73 226 0.0 0.0 0.00 0.00 0.00 23 1002.4
20260503211859 74 206 0.0 0.0 0.00 0.00 0.00 22 1002.8
20260503211333 73 236 0.0 0.0 0.00 0.00 0.00 23 1002.8
20260503210847 74 275 0.0 0.0 0.00 0.00 0.00 22 1002.8
20260503210323 73 257 0.0 0.0 0.00 0.00 0.00 23 1003.1
20260503205838 74 240 0.0 0.0 0.00 0.00 0.00 24 1003.1
20260503205334 73 240 0.0 0.0 0.00 0.00 0.00 23 1003.1
20260503204830 73 200 0.0 0.0 0.00 0.00 0.00 23 1003.4
20260503204325 74 223 0.0 0.0 0.00 0.00 0.00 23 1003.4
20260503203834 74 220 0.0 0.0 0.00 0.00 0.00 22 1003.4
20260503203329 74 229 0.0 0.0 0.00 0.00 0.00 25 1003.9
20260503202843 73 202 0.0 0.0 0.00 0.00 0.00 24 1003.9
20260503202335 73 211 0.0 0.0 0.00 0.00 0.00 26 1003.9
20260503201850 73 238 0.0 0.0 0.00 0.00 0.00 24 1004.2
20260503201324 73 259 0.0 0.0 0.00 0.00 0.00 24 1004.2
20260503200819 72 211 0.0 0.0 0.00 0.00 0.00 25 1004.2
20260503200332 73 214 0.0 0.0 0.00 0.00 0.00 24 1004.7
20260503195826 72 252 0.0 0.0 0.00 0.00 0.00 25 1004.7
20260503195341 73 221 0.0 0.0 0.00 0.00 0.00 25 1004.7
20260503194833 72 228 0.0 0.0 0.00 0.00 0.00 25 1004.8
20260503194326 72 259 0.0 0.0 0.00 0.00 0.00 26 1004.8
20260503193821 72 181 0.0 0.0 0.00 0.00 0.00 27 1004.8
20260503193336 72 195 0.0 0.0 0.00 0.00 0.00 25 1005.3
20260503192831 71 187 0.0 0.0 0.00 0.00 0.00 26 1005.3
20260503192325 72 197 0.0 0.0 0.00 0.00 0.00 26 1005.3
20260503191819 71 253 0.0 0.0 0.00 0.00 0.00 26 1005.8
20260503191334 72 218 0.0 0.0 0.00 0.00 0.00 24 1005.8
20260503190827 71 234 0.0 0.0 0.00 0.00 0.00 24 1005.8
20260503190325 71 215 0.0 0.0 0.00 0.00 0.00 27 1006.1
20260503185839 71 259 0.0 0.0 0.00 0.00 0.00 26 1006.1
20260503185335 70 192 0.0 0.0 0.00 0.00 0.00 26 1006.1
20260503184831 71 220 0.0 0.0 0.00 0.00 0.00 26 1006.5
20260503184345 70 202 0.0 0.0 0.00 0.00 0.00 26 1006.5
20260503183837 70 244 0.0 0.0 0.00 0.00 0.00 27 1006.5
20260503183332 69 284 0.0 0.0 0.00 0.00 0.00 26 1007.1
20260503182829 70 223 0.0 0.0 0.00 0.00 0.00 27 1007.1
20260503182339 69 229 0.0 0.0 0.00 0.00 0.00 28 1007.1
20260503181835 69 244 0.0 0.0 0.00 0.00 0.00 25 1007.6
20260503181330 70 189 0.0 0.0 0.00 0.00 0.00 25 1007.6
20260503180846 69 219 0.0 0.0 0.00 0.00 0.00 27 1007.6
20260503180341 70 204 0.0 0.0 0.00 0.00 0.00 26 1008.1
20260503175833 69 225 0.0 0.0 0.00 0.00 0.00 27 1008.1
20260503175328 69 226 0.0 0.0 0.00 0.00 0.00 26 1008.1
20260503174823 69 242 0.0 0.0 0.00 0.00 0.00 27 1008.3
20260503174320 68 234 0.0 0.0 0.00 0.00 0.00 28 1008.3
20260503173815 68 265 0.0 0.0 0.00 0.00 0.00 27 1008.3
20260503173333 68 266 0.0 0.0 0.00 0.00 0.00 28 1008.8
20260503172827 69 237 0.0 0.0 0.00 0.00 0.00 27 1008.8
20260503172344 68 217 0.0 16.5 0.00 0.00 0.00 28 1008.8
20260503171857 68 264 0.0 21.7 0.00 0.00 0.00 28 1008.9
20260503171331 67 242 12.2 21.7 0.00 0.00 0.00 28 1008.9
20260503170825 68 194 9.6 21.7 0.00 0.00 0.00 29 1008.9
20260503170319 67 196 13.0 18.2 0.00 0.00 0.00 29 1009.4
20260503150818 60 181 9.6 13.9 0.00 0.00 0.00 39 1011.1
20260503150331 59 205 9.6 13.9 0.00 0.00 0.00 39 1011.2
20260503131325 44 228 6.1 9.6 0.00 0.00 0.00 63 1012.4
20260503130858 43 219 7.0 9.6 0.00 0.00 0.00 64 1012.4
20260503130331 42 228 7.8 9.6 0.00 0.00 0.00 65 1012.3
20260503110336 35 221 8.7 9.6 0.00 0.00 0.00 74 1012.3
20260503090325 39 244 4.3 6.1 0.00 0.00 0.00 64 1012.3
20260503081323 40 254 4.3 6.1 0.00 0.00 0.00 63 1012.2
20260503080822 40 204 5.2 6.1 0.00 0.00 0.00 61 1012.2
20260503080316 42 252 5.2 6.1 0.00 0.00 0.00 58 1012.1
20260503072821 46 308 6.1 8.7 0.00 0.00 0.00 52 1012.1
20260503072334 46 297 5.2 8.7 0.00 0.00 0.00 52 1012.1
20260503071829 46 318 5.2 8.7 0.00 0.00 0.00 52 1012.1
20260503071344 46 298 5.2 7.8 0.00 0.00 0.00 52 1012.1
20260503070818 47 340 5.2 9.6 0.00 0.00 0.00 52 1012.1
20260503070332 47 312 5.2 9.6 0.00 0.00 0.00 52 1012.1
20260503060343 47 275 8.7 13.9 0.00 0.00 0.00 57 1011.9
20260503054822 47 275 10.4 11.3 0.00 0.00 0.00 57 1011.8
20260503054404 47 284 7.0 11.3 0.00 0.00 0.00 57 1011.8
20260503053832 47 290 7.0 11.3 0.00 0.00 0.00 57 1011.8
20260503053327 48 279 7.8 11.3 0.00 0.00 0.00 57 1011.6
20260503052826 48 286 7.8 11.3 0.00 0.00 0.00 57 1011.6
20260503052323 48 283 7.0 11.3 0.00 0.00 0.00 57 1011.6
20260503051820 48 284 7.0 11.3 0.00 0.00 0.00 56 1011.6
20260503051319 49 282 7.0 12.2 0.00 0.00 0.00 55 1011.6
20260503050835 49 281 7.8 13.0 0.00 0.00 0.00 55 1011.6
20260503050330 50 276 10.4 13.9 0.00 0.00 0.00 55 1011.6
20260503045841 50 267 11.3 13.9 0.00 0.00 0.00 55 1011.6
20260503045331 50 271 9.6 13.0 0.00 0.00 0.00 55 1011.6
20260503044827 50 270 9.6 13.0 0.00 0.00 0.00 55 1011.5
20260503044320 50 268 10.4 13.0 0.00 0.00 0.00 54 1011.5
20260503043820 50 271 9.6 12.2 0.00 0.00 0.00 54 1011.5
20260503043335 50 259 9.6 13.0 0.00 0.00 0.00 54 1011.5
20260503042832 50 279 10.4 13.0 0.00 0.00 0.00 53 1011.5
20260503042328 50 268 10.4 12.2 0.00 0.00 0.00 52 1011.5
20260503041845 50 271 10.4 13.0 0.00 0.00 0.00 53 1011.4
20260503041320 51 297 10.4 13.0 0.00 0.00 0.00 52 1011.4
20260503040817 51 272 11.3 12.2 0.00 0.00 0.00 51 1011.4
20260503040333 51 272 9.6 12.2 0.00 0.00 0.00 50 1011.3
20260503035833 52 274 10.4 12.2 0.00 0.00 0.00 50 1011.3